{"data":{"norad_id":53397,"epoch":"2026-05-25T03:19:44.393664Z","epoch_age_seconds":58917,"freshness":"FRESH","line1":"1 53397U 22097K   26145.13870826 -.00000243  00000+0  28435-5 0  9996","line2":"2 53397  53.2142 140.9250 0001128  94.6784 265.4337 15.08837489210058","mean_motion":15.08837489,"eccentricity":0.0001128,"inclination_deg":53.2142,"raan_deg":140.925,"arg_perigee_deg":94.6784,"mean_anomaly_deg":265.4337,"bstar":2.8435e-6,"rev_number":21005,"period_min":95.437713504479,"perigee_km":538.97072632358,"apogee_km":540.53140187084,"semimajor_km":6917.8880640972,"source":"CELESTRAK","updated_at":"2026-05-25T13:38:17.397056Z"}}